Location: Newark
(25.0000°N, 73.5000°E)
Time: 00:39:13
(UTC+00:00)

Tiros 1 despin weight - Pass Details

Date: 06 March 2021
Orbit: 593 x 641 km, 48.2° (Epoch: 15 April)

Event Time Altitude Azimuth Distance (km) Brightness Sun altitude
Rises 17:00:04 0° 255° (WSW) 2,841 - -51.7°
Reaches altitude 10° 17:02:42 10° 270° (W) 1,949 - -52.3°
Maximum altitude 17:06:19 24° 324° (NW) 1,285 - -53.0°
Drops below altitude 10° 17:09:59 10° 18° (NNE) 1,978 - -53.8°
Sets 17:12:42 0° 32° (NNE) 2,895 - -54.3°
